K7SKM Weather Reports


Display with metric or nautical units.
time (UTC)temp
F
wind
direction
speed
MPH
gust
MPH
rain 1hr
in
rain 24hr
in
rain mn
in
humidity
%
barometer
mb
20260905185643 60 163 0.0 0.0 0.00 0.00 0.00 74 1022.9
20260905185138 60 129 0.0 0.0 0.00 0.00 0.00 75 1022.8
20260905184632 60 160 0.0 0.0 0.00 0.00 0.00 74 1022.9
20260905184131 61 147 0.0 0.0 0.00 0.00 0.00 73 1023.0
20260905183630 61 204 0.0 0.0 0.00 0.00 0.00 74 1023.0
20260905183126 61 175 0.0 0.0 0.00 0.00 0.00 74 1023.1
20260905182620 61 193 0.0 0.0 0.00 0.00 0.00 77 1023.2
20260905182119 60 223 0.0 0.0 0.00 0.00 0.00 77 1023.0
20260905181614 60 233 0.0 0.0 0.00 0.00 0.00 78 1023.1
20260905181113 59 140 0.0 0.0 0.00 0.00 0.00 79 1023.0
20260905180609 60 124 0.0 0.0 0.00 0.00 0.00 78 1023.1
20260905180104 59 176 0.0 0.0 0.00 0.00 0.00 79 1023.3
20260905175603 59 203 0.0 0.0 0.00 0.00 0.00 80 1023.1
20260905175058 58 184 0.0 0.0 0.00 0.00 0.00 81 1023.2
20260905174554 58 139 0.0 0.0 0.00 0.00 0.00 81 1023.1
20260905174049 57 129 0.0 0.0 0.00 0.00 0.00 81 1023.1
20260905173546 57 154 0.0 0.0 0.00 0.00 0.00 81 1023.0
20260905173041 58 124 0.0 0.0 0.00 0.00 0.00 81 1023.1
20260905172539 57 153 0.0 0.0 0.00 0.00 0.00 81 1023.0
20260905172035 57 157 0.0 0.0 0.00 0.00 0.00 81 1023.0
20260905171531 57 140 0.0 0.0 0.00 0.00 0.00 81 1022.9
20260905171027 57 145 0.0 0.0 0.00 0.00 0.00 81 1022.9
20260905170523 58 163 0.0 0.0 0.00 0.00 0.00 81 1022.8
20260905170018 57 142 0.0 0.0 0.00 0.00 0.00 82 1022.7
20260905165513 57 148 0.0 0.0 0.00 0.00 0.00 82 1022.9
20260905165008 57 144 0.0 0.0 0.00 0.00 0.00 85 1022.8
20260905164502 57 141 0.0 0.0 0.00 0.00 0.00 86 1022.7
20260905163956 56 130 0.0 0.0 0.00 0.00 0.00 88 1022.9
20260905163453 55 134 0.0 0.0 0.00 0.00 0.00 89 1022.8
20260905162949 55 135 0.0 0.0 0.00 0.00 0.00 89 1022.7
20260905162444 55 150 0.0 0.0 0.00 0.00 0.00 89 1022.8
20260905161939 56 163 0.0 0.0 0.00 0.00 0.00 90 1022.7
20260905161438 55 148 0.0 0.0 0.00 0.00 0.00 91 1022.7
20260905160936 55 147 0.0 0.0 0.00 0.00 0.00 91 1022.8
20260905160430 55 135 0.0 0.0 0.00 0.00 0.00 91 1022.8
20260905155930 54 157 0.0 0.0 0.00 0.00 0.00 91 1022.6
20260905155425 54 174 0.0 0.0 0.00 0.00 0.00 92 1022.6
20260905154923 54 136 0.0 0.0 0.00 0.00 0.00 92 1023.0
20260905154419 53 138 0.0 0.0 0.00 0.00 0.00 93 1022.7
20260905153914 53 148 0.0 0.0 0.00 0.00 0.00 93 1022.7
20260905153411 53 158 0.0 0.0 0.00 0.00 0.00 94 1022.6
20260905152910 52 168 0.0 0.0 0.00 0.00 0.00 95 1022.6
20260905152409 52 148 0.0 0.0 0.00 0.00 0.00 95 1022.7
20260905151905 51 133 0.0 0.0 0.00 0.00 0.00 96 1022.7
20260905151401 52 128 0.0 0.0 0.00 0.00 0.00 97 1022.6
20260905150900 51 145 0.0 0.0 0.00 0.00 0.00 97 1022.7
20260905150355 51 100 0.0 0.0 0.00 0.00 0.00 97 1022.7
20260905145852 51 162 0.0 0.0 0.00 0.00 0.00 97 1022.7
20260905145346 51 160 0.0 0.0 0.00 0.00 0.00 98 1022.6
20260905144846 51 151 0.0 0.0 0.00 0.00 0.00 98 1022.5
20260905144342 50 175 0.0 0.0 0.00 0.00 0.00 98 1022.4
20260905143840 50 183 0.0 0.0 0.00 0.00 0.00 98 1022.6
20260905143334 50 174 0.0 0.0 0.00 0.00 0.00 98 1022.3
20260905142834 50 162 0.0 0.0 0.00 0.00 0.00 98 1022.4
20260905142332 50 193 0.0 0.0 0.00 0.00 0.00 98 1022.3
20260905141829 50 143 0.0 0.0 0.00 0.00 0.00 98 1022.2
20260905141324 50 128 0.0 3.0 0.00 0.00 0.00 98 1022.2
20260905140820 49 171 0.0 0.0 0.00 0.00 0.00 98 1022.2
20260905140320 49 184 0.0 0.0 0.00 0.00 0.00 98 1022.3
20260905135818 49 171 0.0 0.0 0.00 0.00 0.00 98 1022.2
20260905135314 49 155 0.0 0.0 0.00 0.00 0.00 98 1022.3
20260905134809 49 155 0.0 0.0 0.00 0.00 0.00 98 1022.1
20260905134303 49 153 0.0 0.0 0.00 0.00 0.00 98 1021.9
20260905133757 49 180 0.0 0.0 0.00 0.00 0.00 98 1022.1
20260905133253 49 180 0.0 0.0 0.00 0.00 0.00 98 1021.9
20260905132752 49 179 0.0 0.0 0.00 0.00 0.00 98 1022.2
20260905132247 49 180 0.0 0.0 0.00 0.00 0.00 98 1021.9
20260905131742 49 184 0.0 0.0 0.00 0.00 0.00 98 1021.9
20260905131237 49 177 0.0 0.0 0.00 0.00 0.00 98 1022.1
20260905130732 49 188 0.0 0.0 0.00 0.00 0.00 98 1021.9
20260905130231 49 181 0.0 0.0 0.00 0.00 0.00 98 1022.0
20260905125727 49 182 0.0 0.0 0.00 0.00 0.00 98 1022.1
20260905125221 49 154 0.0 0.0 0.00 0.00 0.00 98 1021.9
20260905124718 49 158 0.0 0.0 0.00 0.00 0.00 98 1021.9
20260905124214 49 145 0.0 3.0 0.00 0.00 0.00 98 1021.8
20260905123708 49 137 0.0 0.0 0.00 0.00 0.00 98 1021.9
20260905123206 49 177 0.0 0.0 0.00 0.00 0.00 98 1021.7
20260905122705 49 151 0.0 0.0 0.00 0.00 0.00 98 1021.7
20260905122159 49 157 0.0 0.0 0.00 0.00 0.00 98 1022.0
20260905121654 49 148 0.0 0.0 0.00 0.00 0.00 98 1021.9
20260905121150 49 177 0.0 0.0 0.00 0.00 0.00 98 1021.8
20260905120649 49 180 0.0 0.0 0.00 0.00 0.00 98 1022.0
20260905120144 49 185 0.0 0.0 0.00 0.00 0.00 98 1021.9
20260905115644 49 144 0.0 0.0 0.00 0.00 0.00 98 1021.9
20260905115139 49 154 0.0 0.0 0.00 0.00 0.00 98 1021.9
20260905114638 49 169 0.0 0.0 0.00 0.00 0.00 98 1021.9
20260905114137 49 181 0.0 0.0 0.00 0.00 0.00 98 1021.9
20260905113632 49 201 0.0 0.0 0.00 0.00 0.00 98 1021.9
20260905113127 49 155 0.0 0.0 0.00 0.00 0.00 98 1022.0
20260905112621 49 153 0.0 0.0 0.00 0.00 0.00 98 1021.7
20260905112118 49 162 0.0 0.0 0.00 0.00 0.00 98 1021.7
20260905111612 48 187 0.0 0.0 0.00 0.00 0.00 98 1021.8
20260905111111 48 187 0.0 0.0 0.00 0.00 0.00 97 1021.6
20260905110611 49 183 0.0 0.0 0.00 0.00 0.00 98 1021.7
20260905110106 49 172 0.0 0.0 0.00 0.00 0.00 98 1021.6
20260905105600 49 183 0.0 0.0 0.00 0.00 0.00 98 1021.4
20260905105059 49 175 0.0 0.0 0.00 0.00 0.00 98 1021.5
20260905104555 49 185 0.0 0.0 0.00 0.00 0.00 98 1021.5
20260905104055 49 190 0.0 0.0 0.00 0.00 0.00 97 1021.5
20260905103550 49 185 0.0 0.0 0.00 0.00 0.00 97 1021.5
20260905103047 49 183 0.0 0.0 0.00 0.00 0.00 97 1021.3
20260905102542 50 137 0.0 0.0 0.00 0.00 0.00 97 1021.4
20260905102039 50 151 0.0 0.0 0.00 0.00 0.00 97 1021.4
20260905101537 49 179 0.0 0.0 0.00 0.00 0.00 97 1021.4
20260905101035 50 166 0.0 0.0 0.00 0.00 0.00 97 1021.2
20260905100532 50 160 0.0 0.0 0.00 0.00 0.00 97 1021.5
20260905100031 50 149 0.0 0.0 0.00 0.00 0.00 97 1021.3
20260905095520 50 140 0.0 0.0 0.00 0.00 0.00 97 1021.3
20260905095015 50 123 0.0 0.0 0.00 0.00 0.00 97 1021.3
20260905094510 50 162 0.0 0.0 0.00 0.00 0.00 97 1021.4
20260905094010 50 159 0.0 0.0 0.00 0.00 0.00 97 1021.4
20260905093504 50 157 0.0 3.0 0.00 0.00 0.00 97 1021.3
20260905093001 50 142 0.0 0.0 0.00 0.00 0.00 97 1021.4
20260905092456 50 149 0.0 3.0 0.00 0.00 0.00 97 1021.4
20260905091951 50 163 0.0 0.0 0.00 0.00 0.00 97 1021.3
20260905091451 50 184 0.0 0.0 0.00 0.00 0.00 97 1021.3
20260905090950 50 166 0.0 0.0 0.00 0.00 0.00 97 1021.4
20260905090445 51 164 0.0 0.0 0.00 0.00 0.00 97 1021.5
20260905085944 51 155 0.0 0.0 0.00 0.00 0.00 97 1021.3
20260905085444 51 177 0.0 0.0 0.00 0.00 0.00 97 1021.4
20260905084940 51 152 0.0 0.0 0.00 0.00 0.00 97 1021.4
20260905084439 51 136 0.0 0.0 0.00 0.00 0.00 97 1021.3
20260905083934 51 176 0.0 0.0 0.00 0.00 0.00 97 1021.4
20260905083430 51 159 0.0 0.0 0.00 0.00 0.00 97 1021.1
20260905082925 51 137 0.0 0.0 0.00 0.00 0.00 97 1021.3
20260905082421 51 170 0.0 0.0 0.00 0.00 0.00 97 1021.3
20260905081916 51 185 0.0 0.0 0.00 0.00 0.00 96 1021.4
20260905081411 51 181 0.0 0.0 0.00 0.00 0.00 96 1021.0
20260905080910 51 185 0.0 0.0 0.00 0.00 0.00 96 1021.0
20260905080410 51 134 0.0 0.0 0.00 0.00 0.00 96 1021.1
20260905075909 51 170 0.0 0.0 0.00 0.00 0.00 95 1021.2
20260905075403 51 187 0.0 0.0 0.00 0.00 0.00 94 1021.1
20260905074903 51 186 0.0 0.0 0.00 0.00 0.00 94 1021.1
20260905074358 51 186 0.0 0.0 0.00 0.00 0.00 94 1021.1
20260905073854 52 181 0.0 0.0 0.00 0.00 0.00 94 1021.0
20260905073349 52 176 0.0 0.0 0.00 0.00 0.00 93 1021.1
20260905072844 52 187 0.0 0.0 0.00 0.00 0.00 91 1021.0
20260905072338 52 190 0.0 0.0 0.00 0.00 0.00 91 1021.0
20260905071835 52 180 0.0 0.0 0.00 0.00 0.00 90 1021.2
20260905071331 52 178 0.0 0.0 0.00 0.00 0.00 90 1021.0
20260905070825 53 175 0.0 0.0 0.00 0.00 0.00 90 1020.9
20260905070322 53 172 0.0 0.0 0.00 0.00 0.00 89 1021.1
20260905065821 53 180 0.0 0.0 0.00 0.09 0.09 88 1020.7
20260905065319 53 178 0.0 0.0 0.00 0.09 0.09 88 1021.0
20260905064815 53 167 0.0 0.0 0.00 0.09 0.09 88 1020.7
20260905064311 53 152 0.0 0.0 0.00 0.09 0.09 88 1020.5
20260905063809 53 181 0.0 0.0 0.00 0.09 0.09 87 1020.6
20260905063305 54 176 0.0 0.0 0.00 0.09 0.09 87 1020.7
20260905062800 54 176 0.0 0.0 0.00 0.09 0.09 87 1020.6
20260905062255 54 169 0.0 0.0 0.00 0.09 0.09 86 1020.7
20260905061749 54 183 0.0 0.0 0.00 0.09 0.09 86 1020.5
20260905061244 54 140 0.0 0.0 0.00 0.09 0.09 86 1020.5
20260905060738 54 161 0.0 0.0 0.00 0.09 0.09 86 1020.4
20260905060236 55 156 0.0 0.0 0.00 0.09 0.09 86 1020.5
20260905055734 55 148 0.0 0.0 0.00 0.09 0.09 86 1020.3
20260905055229 55 168 0.0 0.0 0.00 0.09 0.09 86 1020.6
20260905054724 55 170 0.0 0.0 0.00 0.09 0.09 85 1020.4
20260905054221 55 139 0.0 3.0 0.00 0.09 0.09 85 1020.4
20260905053719 55 127 0.0 0.0 0.00 0.09 0.09 85 1020.4
20260905053215 55 170 0.0 0.0 0.00 0.09 0.09 85 1020.4
20260905052709 55 149 0.0 0.0 0.00 0.09 0.09 84 1020.2
20260905052204 55 169 0.0 0.0 0.00 0.09 0.09 84 1020.5
20260905051704 55 157 0.0 0.0 0.00 0.09 0.09 83 1020.5
20260905051201 56 150 0.0 0.0 0.00 0.09 0.09 83 1020.3
20260905050657 56 166 0.0 0.0 0.00 0.09 0.09 83 1020.4
20260905050154 55 189 0.0 0.0 0.00 0.09 0.09 82 1020.3
20260905045653 56 190 0.0 0.0 0.00 0.09 0.09 82 1020.2
20260905045148 56 195 0.0 0.0 0.00 0.09 0.09 82 1020.4
20260905044643 56 182 0.0 0.0 0.00 0.09 0.09 81 1020.4
20260905044138 56 141 0.0 0.0 0.00 0.09 0.09 82 1020.6
20260905043636 56 153 2.0 5.0 0.00 0.09 0.09 82 1020.4
20260905043132 56 155 0.0 0.0 0.00 0.09 0.09 81 1020.5
20260905042631 56 186 0.0 0.0 0.00 0.09 0.09 81 1020.4
20260905042126 57 168 0.0 0.0 0.00 0.09 0.09 81 1020.5
20260905041621 57 180 0.0 0.0 0.00 0.09 0.09 81 1020.4
20260905041116 57 153 0.0 0.0 0.00 0.09 0.09 81 1020.5
20260905040611 57 125 0.0 0.0 0.00 0.09 0.09 80 1020.5
20260905040109 57 132 0.0 3.0 0.00 0.09 0.09 80 1020.2
20260905035605 57 126 2.0 3.0 0.00 0.09 0.09 79 1020.2
20260905035101 57 181 0.0 0.0 0.00 0.09 0.09 79 1020.4
20260905034557 57 181 0.0 0.0 0.00 0.09 0.09 78 1020.3
20260905034051 58 155 0.0 0.0 0.00 0.09 0.09 78 1020.2
20260905033544 58 177 0.0 0.0 0.00 0.09 0.09 78 1020.3
20260905033041 58 195 0.0 0.0 0.00 0.09 0.09 76 1020.1
20260905032535 58 213 0.0 0.0 0.00 0.09 0.09 76 1020.2
20260905032030 58 185 0.0 0.0 0.00 0.09 0.09 76 1020.0
20260905031526 59 186 0.0 0.0 0.00 0.09 0.09 75 1020.0
20260905031025 59 187 0.0 0.0 0.00 0.09 0.09 74 1019.9
20260905030521 59 170 0.0 0.0 0.00 0.09 0.09 74 1020.0
20260905030021 60 161 0.0 0.0 0.00 0.09 0.09 73 1019.9
20260905025516 60 168 0.0 0.0 0.00 0.09 0.09 73 1019.9
20260905025012 60 176 0.0 0.0 0.00 0.09 0.09 71 1020.1
20260905024507 60 152 0.0 0.0 0.00 0.09 0.09 71 1019.9
20260905024003 60 185 0.0 0.0 0.00 0.09 0.09 71 1019.8
20260905023457 60 184 0.0 0.0 0.00 0.09 0.09 70 1019.8
20260905022956 60 188 0.0 0.0 0.00 0.09 0.09 69 1019.6
20260905022451 61 191 0.0 0.0 0.00 0.09 0.09 68 1019.8
20260905021947 61 179 0.0 0.0 0.00 0.09 0.09 67 1019.5
20260905021446 61 188 0.0 0.0 0.00 0.09 0.09 68 1019.8
20260905020941 61 193 0.0 0.0 0.00 0.09 0.09 66 1019.7
20260905020436 61 157 0.0 3.0 0.00 0.09 0.09 66 1019.9
20260905015936 62 180 0.0 0.0 0.00 0.09 0.09 66 1019.8
20260905015434 62 136 0.0 0.0 0.00 0.09 0.09 65 1019.9
20260905014933 62 144 0.0 3.0 0.00 0.09 0.09 65 1019.9
20260905014429 62 152 0.0 5.0 0.00 0.09 0.09 65 1019.7
20260905013924 62 145 0.0 3.0 0.00 0.09 0.09 65 1019.8
20260905013421 62 124 1.0 3.0 0.00 0.09 0.09 66 1019.7
20260905012915 63 132 0.0 5.0 0.00 0.09 0.09 66 1019.6
20260905012411 63 166 1.0 3.0 0.00 0.09 0.09 64 1019.8
20260905011908 63 145 2.0 5.0 0.00 0.09 0.09 64 1019.6
20260905011403 63 158 2.0 5.0 0.00 0.09 0.09 64 1019.5
20260905010858 63 127 0.0 3.0 0.00 0.09 0.09 64 1019.3
20260905010353 63 181 0.0 3.0 0.00 0.09 0.09 63 1019.1
20260905005849 64 181 0.0 0.0 0.00 0.09 0.09 62 1019.2
20260905005345 64 156 0.0 5.0 0.00 0.09 0.09 63 1019.0
20260905004840 65 160 0.0 3.0 0.00 0.09 0.09 62 1018.8
20260905004334 66 202 0.0 0.0 0.00 0.09 0.09 61 1019.0
20260905003830 65 111 0.0 0.0 0.00 0.09 0.09 61 1019.1
20260905003325 65 184 0.0 3.0 0.00 0.09 0.09 62 1018.9
20260905002820 64 189 0.0 3.0 0.00 0.09 0.09 63 1019.0
20260905002315 64 144 7.0 10.0 0.00 0.09 0.09 61 1018.9
20260905001810 64 132 4.0 5.0 0.00 0.09 0.09 61 1018.8
20260905001309 64 337 2.0 10.0 0.00 0.09 0.09 60 1018.9
20260905000805 64 130 7.0 12.0 0.00 0.09 0.09 59 1018.9
20260905000303 65 133 5.0 15.0 0.00 0.09 0.09 61 1018.9
20260904235756 66 130 5.0 10.0 0.00 0.09 0.09 60 1019.0
20260904235250 65 143 5.0 12.0 0.00 0.09 0.09 60 1018.8
20260904234745 66 135 8.0 12.0 0.00 0.09 0.09 61 1019.0
20260904234240 66 130 5.0 10.0 0.00 0.09 0.09 63 1018.9
20260904233736 66 162 8.0 12.0 0.00 0.09 0.09 63 1019.0
20260904233232 67 124 4.0 7.0 0.00 0.09 0.09 63 1018.8
20260904232728 66 124 10.0 12.0 0.00 0.09 0.09 61 1018.8
20260904232224 68 137 8.0 15.0 0.00 0.09 0.09 60 1018.8
20260904231719 67 135 0.0 0.0 0.00 0.09 0.09 53 1018.8
20260904231215 67 152 0.0 0.0 0.00 0.09 0.09 55 1018.7
20260904230709 66 150 0.0 0.0 0.00 0.09 0.09 57 1018.7
20260904230203 65 208 0.0 0.0 0.00 0.09 0.09 71 1018.6
20260904225702 64 171 0.0 0.0 0.00 0.09 0.09 65 1018.6
20260904225157 64 163 0.0 0.0 0.00 0.09 0.09 68 1018.6
20260904224650 63 118 2.0 5.0 0.00 0.09 0.09 71 1018.5
20260904224145 62 125 1.0 5.0 0.00 0.09 0.09 72 1018.3
20260904223645 63 129 2.0 5.0 0.00 0.09 0.09 76 1018.4
20260904223140 62 199 0.0 0.0 0.07 0.09 0.09 78 1018.3
20260904222636 61 213 0.0 0.0 0.07 0.09 0.09 76 1018.3
20260904222131 62 218 0.0 0.0 0.00 0.08 0.08 72 1018.2
20260904221631 63 132 0.0 3.0 0.07 0.08 0.08 69 1018.5
20260904221125 64 188 0.0 3.0 0.14 0.08 0.08 68 1018.5
20260904220621 68 157 0.0 0.0 0.00 0.06 0.06 61 1018.5
20260904220116 68 161 0.0 0.0 0.00 0.06 0.06 54 1018.3
20260904215616 68 118 0.0 0.0 0.00 0.06 0.06 56 1018.1
20260904215112 69 218 0.0 0.0 0.00 0.06 0.06 55 1018.2
20260904214607 69 207 0.0 0.0 0.00 0.06 0.06 56 1018.0
20260904214102 68 165 0.0 0.0 0.00 0.06 0.06 55 1017.9
20260904213600 69 209 0.0 0.0 0.00 0.06 0.06 55 1017.9
20260904213057 68 248 0.0 3.0 0.00 0.06 0.06 55 1018.1
20260904212556 69 260 0.0 0.0 0.00 0.06 0.06 55 1017.9
20260904212052 69 206 0.0 0.0 0.00 0.06 0.06 55 1018.0
20260904211551 70 130 0.0 0.0 0.00 0.06 0.06 52 1018.1
20260904211047 69 288 5.0 10.0 0.00 0.06 0.06 54 1017.9
20260904210546 69 251 3.0 5.0 0.00 0.06 0.06 55 1017.9
20260904210042 69 257 2.0 10.0 0.00 0.06 0.06 56 1017.9
20260904205537 70 313 0.0 0.0 0.00 0.06 0.06 56 1018.1
20260904205034 69 273 0.0 3.0 0.00 0.06 0.06 58 1018.1
20260904204530 67 280 4.0 7.0 0.00 0.06 0.06 56 1017.9
20260904204025 68 279 1.0 7.0 0.00 0.06 0.06 59 1018.0
20260904203521 69 261 2.0 5.0 0.00 0.06 0.06 58 1018.1
20260904203017 69 245 0.0 0.0 0.00 0.06 0.06 61 1018.1
20260904202513 69 257 0.0 3.0 0.00 0.06 0.06 61 1018.1
20260904202009 69 129 0.0 3.0 0.00 0.06 0.06 55 1018.2
20260904201504 69 208 0.0 0.0 0.00 0.06 0.06 58 1018.1
20260904200959 67 224 0.0 5.0 0.00 0.06 0.06 61 1018.2
20260904200457 67 316 5.0 12.0 0.00 0.06 0.06 58 1018.2
20260904195952 70 247 0.0 0.0 0.00 0.06 0.06 55 1018.0
20260904195451 69 250 0.0 0.0 0.00 0.06 0.06 56 1018.2
20260904194950 69 185 0.0 0.0 0.00 0.06 0.06 54 1018.1
20260904194445 67 272 3.0 10.0 0.00 0.06 0.06 58 1018.0
20260904193940 68 220 3.0 5.0 0.00 0.06 0.06 55 1018.2
20260904193435 70 18 0.0 0.0 0.00 0.06 0.06 54 1018.1
20260904192931 68 179 0.0 0.0 0.00 0.06 0.06 58 1018.0
20260904192426 68 99 0.0 0.0 0.00 0.06 0.06 58 1018.2
20260904191922 69 168 0.0 0.0 0.00 0.06 0.06 57 1018.2
20260904191419 68 114 0.0 0.0 0.00 0.06 0.06 55 1018.2
20260904190915 69 220 0.0 0.0 0.00 0.06 0.06 59 1018.2
20260904190410 66 228 0.0 0.0 0.00 0.06 0.06 62 1018.2
20260904185906 67 289 0.0 0.0 0.00 0.06 0.06 60 1018.1